Weather Roundup
Issued by NWS Springfield, MO

Home | Current Version | Previous Version | Text Only | Print | Product List | Glossary On
Versions: 1 2 3 4 5 6 7 8 9 10 11 12 13 14 15 16 17 18 19 20 21 22 23 24 25 26 27 28 29 30 31 32 33 34 35 36 37 38 39 40 41 42 43 44 45 46 47 48 49 50
000
NZUS99 KSGF 231559
HRRSGF

HOURLY WEATHER
NATIONAL WEATHER SERVICE SPRINGFIELD MO
1100 AM CDT SAT MAY 23 2015

......SGF CWA......

CITY           SKY/WX    TMP DP  RH WIND       PRES   REMARKS
SPRINGFIELD    CLOUDY    61  54  77 S15       30.26F
JOPLIN         CLOUDY    62  59  90 SE9       30.22F
WEST PLAINS    CLOUDY    66  50  56 SE8       30.31S
ROLLA          CLOUDY    67  52  58 SE10      30.29R
OSAGE BEACH    CLOUDY    68  52  56 SE6       30.28F
BRANSON        LGT RAIN  57  55  94 SE9       30.29F FOG

......SURROUNDING SGF CWA......

CITY           SKY/WX    TMP DP  RH WIND       PRES   REMARKS
CHANUTE        LGT RAIN  60  59  96 E8        30.19F
PARSONS        CLOUDY    61  60  97 VRB3      30.20F
COFFEYVILLE    CLOUDY    63  59  87 SE9       30.18F
EMPORIA        CLOUDY    60  58  92 SE9       30.17F
SILOAM SPRINGS CLOUDY    64  55  72 SE8       30.24F
HARRISON AR    LGT RAIN  58  57  97 E7        30.28F
NEAR YELLVILLE CLOUDY    63  55  77 E3        30.28S

......KANSAS AND MISSOURI......

CITY           SKY/WX    TMP DP  RH WIND       PRES   REMARKS
KANSAS CTY INT CLOUDY    63  57  81 S12       30.21F
DOWNTOWN KC    CLOUDY    65  56  72 S6        30.22F
COLUMBIA       CLOUDY    69  51  52 S14       30.29R
SEDALIA        CLOUDY    68  54  60 S15       30.27F
ST JOSEPH      CLOUDY    62  56  80 SE9       30.22S
ST LOUIS       PTSUNNY   74  48  39 SE14G20   30.31F
SPIRIT OF STL  MOSUNNY   73  51  46 S9        30.29F
KIRKSVILLE     PTSUNNY   70  53  54 S16G24    30.28S
WICHITA        LGT RAIN  59  57  93 SE10      30.13F VSB 1
TOPEKA         CLOUDY    62  57  83 SE8       30.20F
OLATHE         CLOUDY    60  58  92 S13       30.22F

......TENNESSEE......

CITY           SKY/WX    TMP DP  RH WIND       PRES   REMARKS
MEMPHIS        PTSUNNY   77  54  44 VRB6      30.30S
NASHVILLE      PTSUNNY   72  49  44 SE3       30.35F

......ARKANSAS.......

CITY           SKY/WX    TMP DP  RH WIND       PRES   REMARKS
FAYETTEVILLE   CLOUDY    66  59  78 S7        30.24F
FT SMITH       CLOUDY    64  58  80 E12       30.23F
LITTLE ROCK    CLOUDY    72  56  57 VRB5      30.28R

......OKLAHOMA.......

CITY           SKY/WX    TMP DP  RH WIND       PRES   REMARKS
TULSA          CLOUDY    65  61  87 SE14      30.14F
PONCA CITY     CLOUDY    62  61  96 SE15      30.11F FOG
MCALESTER      CLOUDY    67  61  81 SE9G17    30.16F
OKLAHOMA CITY  FOG       65  64  97 SE17      30.05F VSB 1/2

......IOWA............

CITY           SKY/WX    TMP DP  RH WIND       PRES   REMARKS
DES MOINES     PTSUNNY   69  50  50 S13       30.25S
QUAD CITIES    SUNNY     75  47  36 S6        30.28F

......ILLINOIS........

CITY           SKY/WX    TMP DP  RH WIND       PRES   REMARKS
QUINCY         MOSUNNY   71  50  47 S12       30.29F
CHICAGO        MOSUNNY   72  41  32 SE9       30.31F



USA.gov is the U.S. government's official web portal to all federal, state and local government web resources and services.